[[{"header":{"parameterUnit":"m.s-1","parameterCategory":1,"la1":30.2991,"la2":30.254,"lo1":-89.0895,"lo2":-89.0444,"dy":0.0017,"dx":0.0017,"nx":28,"ny":28,"refTime":"2023-09-26T03:00:00:Z","depth":0,"parameterNumber":2,"parameterNumberName":"U-component_of_WINDS"},"data":[0,0,0,0,0,0,0,0,0,0,0,0,0,0,0,0,0,0,0,0,0,0,0,0,0,0,0,0,0,0,0,0,0,0,0,0,0,0,0,0,0,0,0,0,0,0,0,0,0,0,0,0,0,0,0,0,0,0,-4.0161,-4.0161,0,-4.0111,-4.011,-4.011,-3.9996,-3.9993,-3.9991,-3.9989,-3.9939,-3.994,-3.9941,0,0,0,0,0,0,0,0,0,0,0,0,0,-4.0163,-4.0164,-4.0161,-4.0161,-4.016,-4.0111,-4.011,-4.011,-3.9996,-3.9993,-3.9991,-3.9988,-3.9939,-3.994,-3.9941,0,0,0,0,0,0,0,0,0,0,0,0,0,-4.0143,-4.0164,-4.0161,-4.0098,-4.0091,-4.0111,-4.011,-4.0109,-3.9997,-3.9993,-3.999,-3.9986,-3.9939,-3.994,-3.9941,-4.002,0,0,-3.9945,-3.9946,0,0,0,0,0,0,0,0,-4.0144,-4.0143,-4.0108,-4.0102,-4.0095,-4.0056,-4.0093,-4.0079,-3.9998,-4.0033,-3.9989,-3.9985,-3.9981,-3.9979,-3.9977,-4.0018,-4.0015,-3.9945,-3.9946,-3.9947,-3.9947,0,0,0,0,0,0,0,-4.0145,-4.0144,-4.0141,-4.0107,-4.01,-4.0073,-4.0066,-4.009,-4.0027,-4.0029,-4.0021,-4.0017,-3.9977,-3.9976,-3.9975,-4.0015,-3.9945,-3.9947,-3.9947,-3.9948,-4.0121,-4.0125,0,0,0,0,0,0,-4.0156,-4.0146,-4.0143,-4.014,-4.0111,-4.0075,-4.0068,-4.0072,-4.0027,-4.0016,-4.002,-4.0011,-3.9976,-3.9974,-3.9973,-4.0065,-3.9947,-3.9948,-3.9949,-4.0117,-4.0122,-4.0126,0,0,0,0,0,0,-4.0156,-4.0156,-4.0145,-4.0141,-4.0137,-4.0079,-4.0085,-4.0073,-4.0072,-4.0019,-4.0008,-4.003,-3.9973,-3.9971,-4.001,-4.0061,-3.9949,-3.995,-4.0113,-4.0119,-4.0124,-4.0248,0,0,0,0,0,0,-4.0157,-4.0157,-4.0185,-4.0142,-4.0138,-4.0182,-4.0088,-4.0075,-4.0074,-4.0063,-4.0026,-4.0016,-3.997,-4.0009,-4.0011,-4.0061,-3.9951,-4.0108,-4.0115,-4.0122,-4.0239,-4.0257,-4.0272,0,0,0,0,0,-4.0157,-4.0222,-4.0187,-4.0188,-4.0172,-4.0185,-4.0183,-4.0127,-4.0079,-4.0108,-4.0074,-4.0018,-4.0055,-4.0013,-4.0015,-4.0067,-4.0104,-4.0113,-4.0122,-4.0231,-4.0253,-4.0272,0,0,0,0,0,0,-4.0273,-4.0215,-4.0176,-4.0228,-4.0213,-4.0166,-4.02,-4.0152,-4.015,-4.0139,-4.0071,-4.0064,-4.0113,-4.0093,-4.0048,-4.0142,-4.0071,-4.008,-4.0153,-4.0174,-4.0191,-4.0195,-3.9952,0,0,0,0,0,-4.0304,-4.0319,-4.0268,-4.0319,-4.0313,-4.0259,-4.0262,-4.0221,-4.0202,-4.0195,-4.0164,-4.0149,-4.0157,-4.0164,-4.0168,-4.0235,-4.0227,-4.0271,-4.0288,-4.0302,-4.0312,-4.0349,-4.0369,-4.0154,-4.0154,-4.0154,0,0,-4.037,-4.034,-4.0353,-4.0342,-4.0324,-4.0343,-4.0254,-4.0276,-4.029,-4.0198,-4.0234,-4.0211,-4.0189,-4.0243,-4.0265,-4.0228,-4.037,-4.0313,-4.0325,-4.0327,-4.036,-4.0381,-4.0399,-4.016,-4.0159,-4.0158,0,0,-4.0499,-4.0477,-4.0519,-4.0504,-4.0479,-4.0442,-4.0453,-4.0414,-4.0396,-4.043,-4.0363,-4.0378,-4.0393,-4.0382,-4.0378,-4.0506,-4.0456,-4.051,-4.0599,-4.0636,-4.0653,-4.0667,-4.0717,-4.0734,-4.0519,-4.0519,-4.052,0,-4.0584,-4.0608,-4.0546,-4.0574,-4.0573,-4.0491,-4.0534,-4.0523,-4.0501,-4.0503,-4.0461,-4.0481,-4.046,-4.0512,-4.0544,-4.0542,-4.0554,-4.0514,-4.0655,-4.0669,-4.0682,-4.0728,-4.0746,-4.0526,-4.0526,-4.0525,-4.0524,0,-4.0715,-4.0733,-4.077,-4.0752,-4.0754,-4.079,-4.0736,-4.0745,-4.0705,-4.0674,-4.0712,-4.0684,-4.0684,-4.0692,-4.0652,-4.074,-4.0718,-4.0667,-4.0594,-4.0711,-4.0753,-4.077,-4.0536,-4.0534,-4.0532,-4.053,0,0,-4.0915,-4.0864,-4.0879,-4.0872,-4.0839,-4.0853,-4.0886,-4.0885,-4.0897,-4.0885,-4.0913,-4.0929,-4.0882,-4.0878,-4.0836,-4.0869,-4.0977,-4.0814,-4.0812,-4.0848,-4.1076,-4.1117,-4.1138,-4.0942,-4.0945,-4.0948,-4.1079,0,-4.1039,-4.1091,-4.1039,-4.1103,-4.1121,-4.1045,-4.1074,-4.1059,-4.1031,-4.1043,-4.1012,-4.1027,-4.0962,-4.096,-4.0988,-4.0958,-4.1022,-4.0947,-4.097,-4.0972,-4.0981,-4.1159,-4.1201,-4.1326,-4.1094,-4.1097,-4.1099,0,-4.1189,-4.1186,-4.1253,-4.122,-4.1225,-4.1252,-4.1249,-4.1261,-4.1243,-4.1221,-4.1218,-4.1168,-4.12,-4.1129,-4.1174,-4.1124,-4.1131,-4.1118,-4.1121,-4.1123,-4.1044,-4.1169,-4.1364,-4.1384,-4.1124,-4.1122,-4.112,0,-4.1333,-4.1345,-4.1387,-4.1382,-4.1344,-4.1365,-4.135,-4.1329,-4.1333,-4.1331,-4.1333,-4.1335,-4.1336,-4.134,-4.1292,-4.1244,-4.1345,-4.1268,-4.133,-4.1332,-4.1356,-4.1356,-4.1559,-4.1357,-4.1356,-4.1356,-4.1356,0,-4.1478,-4.1522,-4.1451,-4.1478,-4.1526,-4.1466,-4.1516,-4.1493,-4.1476,-4.1498,-4.1431,-4.1454,-4.1389,-4.1405,-4.1368,-4.1414,-4.1414,-4.1399,-4.1389,-4.1406,-4.1409,-4.1411,-4.1402,-4.1361,-4.136,-4.1359,-4.1358,0,-4.1647,-4.16,-4.1642,-4.1603,-4.1594,-4.1632,-4.1599,-4.1623,-4.1591,-4.1621,-4.1624,-4.1575,-4.1591,-4.1544,-4.1552,-4.1528,-4.1595,-4.1569,-4.1601,-4.1595,-4.166,-4.1656,-4.1874,-4.1901,-4.1679,-4.1681,-4.1683,0,-4.1743,-4.1776,-4.1741,-4.1751,-4.174,-4.1757,-4.1761,-4.1703,-4.1711,-4.1695,-4.1722,-4.1732,-4.1738,-4.1768,-4.1734,-4.1741,-4.1717,-4.1793,-4.1718,-4.1736,-4.1722,-4.1722,-4.1727,-4.181,-4.1812,-4.1814,-4.1816,0,-4.1921,-4.1897,-4.1906,-4.1908,-4.1915,-4.1913,-4.1907,-4.1919,-4.1858,-4.187,-4.1886,-4.1891,-4.19,-4.1913,-4.1913,-4.1899,-4.185,-4.184,-4.1855,-4.1875,-4.1893,-4.1887,-4.1647,-4.1836,-4.1834,-4.1832,-4.1831,-4.183,-4.2059,-4.2086,-4.2066,-4.2079,-4.2068,-4.2065,-4.2087,-4.2059,-4.207,-4.2074,-4.2039,-4.2063,-4.2048,-4.2043,-4.2035,-4.2054,-4.2019,-4.2041,-4.2047,-4.2054,-4.2066,-4.1888,-4.2053,-4.2053,-4.2052,-4.2052,-4.2051,0,-4.2236,-4.222,-4.2232,-4.2227,-4.2238,-4.2188,-4.218,-4.2193,-4.2215,-4.2204,-4.2211,-4.2232,-4.2244,-4.2212,-4.2221,-4.2243,-4.222,-4.2247,-4.2246,-4.2245,-4.2095,-4.2082,-4.2266,-4.2266,-4.2266,-4.2266,-4.2266,-4.2265,-4.233,-4.2374,-4.2348,-4.2388,-4.2371,-4.2394,-4.2394,-4.2392,-4.2384,-4.2409,-4.242,-4.2398,-4.238,-4.2387,-4.2398,-4.2388,-4.2396,-4.2432,-4.2415,-4.2276,-4.2255,-4.2235,-4.2223,-4.2433,-4.2433,-4.2564,-4.2565,-4.2566]},{"header":{"parameterUnit":"m.s-1","parameterCategory":1,"la1":30.2991,"la2":30.254,"lo1":-89.0895,"lo2":-89.0444,"dy":0.0017,"dx":0.0017,"nx":28,"ny":28,"refTime":"2023-09-26T03:00:00:Z","depth":0,"parameterNumber":3,"parameterNumberName":"V-component_of_WINDS"},"data":[0,0,0,0,0,0,0,0,0,0,0,0,0,0,0,0,0,0,0,0,0,0,0,0,0,0,0,0,0,0,0,0,0,0,0,0,0,0,0,0,0,0,0,0,0,0,0,0,0,0,0,0,0,0,0,0,0,0,-0.5272,-0.5271,0,-0.5236,-0.5236,-0.5235,-0.5211,-0.5211,-0.521,-0.521,-0.5174,-0.5173,-0.5173,0,0,0,0,0,0,0,0,0,0,0,0,0,-0.5318,-0.5318,-0.5272,-0.5271,-0.5271,-0.5236,-0.5236,-0.5235,-0.5211,-0.5211,-0.521,-0.521,-0.5174,-0.5173,-0.5172,0,0,0,0,0,0,0,0,0,0,0,0,0,-0.5292,-0.5317,-0.5272,-0.5254,-0.5253,-0.5236,-0.5236,-0.5235,-0.5211,-0.5211,-0.521,-0.521,-0.5175,-0.5173,-0.5172,-0.5171,0,0,-0.5169,-0.5168,0,0,0,0,0,0,0,0,-0.5294,-0.529,-0.5257,-0.5256,-0.5253,-0.5228,-0.5239,-0.5214,-0.5211,-0.5227,-0.521,-0.521,-0.5192,-0.5189,-0.5183,-0.5169,-0.5167,-0.5169,-0.5168,-0.5167,-0.5167,0,0,0,0,0,0,0,-0.5295,-0.5292,-0.5258,-0.5257,-0.5255,-0.5249,-0.5245,-0.5234,-0.5211,-0.5225,-0.5223,-0.522,-0.5191,-0.5185,-0.5182,-0.5167,-0.5169,-0.5168,-0.5167,-0.5166,-0.515,-0.515,0,0,0,0,0,0,-0.53,-0.5293,-0.5259,-0.5257,-0.5273,-0.5248,-0.5243,-0.5236,-0.5211,-0.5207,-0.522,-0.5219,-0.5187,-0.5184,-0.5181,-0.5178,-0.5167,-0.5166,-0.5166,-0.515,-0.515,-0.5151,0,0,0,0,0,0,-0.5301,-0.5297,-0.526,-0.5275,-0.5269,-0.5247,-0.524,-0.5236,-0.5229,-0.5207,-0.5203,-0.5218,-0.5186,-0.5183,-0.5174,-0.5177,-0.5166,-0.5165,-0.515,-0.515,-0.515,-0.5172,0,0,0,0,0,0,-0.5303,-0.5298,-0.5297,-0.5275,-0.5269,-0.5253,-0.524,-0.5235,-0.5227,-0.5225,-0.5204,-0.52,-0.5186,-0.5176,-0.5172,-0.5175,-0.5164,-0.5149,-0.515,-0.515,-0.5171,-0.5173,-0.5175,0,0,0,0,0,-0.5304,-0.5304,-0.5297,-0.5293,-0.5267,-0.5254,-0.525,-0.5234,-0.5228,-0.5227,-0.5213,-0.5201,-0.5177,-0.5175,-0.5171,-0.5173,-0.5149,-0.515,-0.515,-0.517,-0.5173,-0.5175,0,0,0,0,0,0,-0.5327,-0.5301,-0.5292,-0.5285,-0.5272,-0.5249,-0.5248,-0.5237,-0.5225,-0.5223,-0.5203,-0.5199,-0.5192,-0.5181,-0.518,-0.5171,-0.5161,-0.5161,-0.5178,-0.518,-0.5182,-0.5185,-0.5163,0,0,0,0,0,-0.5331,-0.5322,-0.53,-0.5295,-0.5289,-0.527,-0.5263,-0.5252,-0.5237,-0.5231,-0.5216,-0.5203,-0.5192,-0.5186,-0.5174,-0.5169,-0.5165,-0.5169,-0.5171,-0.5173,-0.5173,-0.5171,-0.5173,-0.5153,-0.5153,-0.5153,0,0,-0.5339,-0.5324,-0.5319,-0.53,-0.5288,-0.528,-0.5265,-0.5256,-0.525,-0.523,-0.5221,-0.5209,-0.5193,-0.5186,-0.5182,-0.5177,-0.5178,-0.5174,-0.5175,-0.5175,-0.5172,-0.5174,-0.5175,-0.5153,-0.5153,-0.5153,0,0,-0.535,-0.5337,-0.5333,-0.5322,-0.5304,-0.5291,-0.529,-0.527,-0.5262,-0.5252,-0.5237,-0.5229,-0.5211,-0.52,-0.5192,-0.52,-0.5189,-0.5197,-0.5208,-0.5206,-0.5207,-0.5209,-0.5213,-0.5214,-0.5197,-0.5197,-0.5197,0,-0.5363,-0.535,-0.5332,-0.5325,-0.5317,-0.5298,-0.5294,-0.5284,-0.5263,-0.5259,-0.5253,-0.523,-0.5218,-0.5209,-0.5211,-0.5205,-0.5203,-0.52,-0.5209,-0.521,-0.5211,-0.5214,-0.5216,-0.5198,-0.5198,-0.5198,-0.5198,0,-0.5366,-0.5358,-0.5356,-0.5338,-0.5329,-0.5323,-0.5305,-0.5299,-0.5288,-0.5276,-0.5267,-0.5251,-0.5237,-0.5234,-0.5223,-0.5224,-0.5221,-0.5212,-0.5203,-0.5214,-0.5217,-0.5218,-0.52,-0.52,-0.5199,-0.5199,0,0,-0.5391,-0.5363,-0.5363,-0.5355,-0.5334,-0.5327,-0.5321,-0.5307,-0.5303,-0.529,-0.5284,-0.527,-0.5262,-0.5253,-0.524,-0.5239,-0.5247,-0.523,-0.5229,-0.5235,-0.5248,-0.5255,-0.5257,-0.5239,-0.524,-0.524,-0.525,0,-0.5399,-0.5387,-0.5371,-0.5364,-0.5357,-0.5339,-0.5334,-0.5321,-0.5309,-0.5301,-0.5288,-0.5279,-0.5268,-0.5263,-0.526,-0.5247,-0.525,-0.5246,-0.5235,-0.5235,-0.5241,-0.5258,-0.5266,-0.5276,-0.525,-0.5251,-0.5251,0,-0.5408,-0.5396,-0.5389,-0.537,-0.5366,-0.5362,-0.5349,-0.5341,-0.5326,-0.5318,-0.5308,-0.5295,-0.5288,-0.5279,-0.5269,-0.5267,-0.5262,-0.5254,-0.5254,-0.5254,-0.5244,-0.5259,-0.5279,-0.5281,-0.5252,-0.5252,-0.5252,0,-0.5428,-0.541,-0.5404,-0.5397,-0.5375,-0.5372,-0.5363,-0.5348,-0.5341,-0.5329,-0.5325,-0.5312,-0.5306,-0.5297,-0.5281,-0.5276,-0.5273,-0.5263,-0.5267,-0.5268,-0.5268,-0.5268,-0.5288,-0.5263,-0.5263,-0.5263,-0.5263,0,-0.5439,-0.5436,-0.5412,-0.5408,-0.5404,-0.5386,-0.5382,-0.5371,-0.5358,-0.5352,-0.5336,-0.5331,-0.531,-0.5302,-0.529,-0.5284,-0.5281,-0.5275,-0.5272,-0.5277,-0.5278,-0.5274,-0.5273,-0.5263,-0.5263,-0.5263,-0.5263,0,-0.5461,-0.5445,-0.5437,-0.5417,-0.5412,-0.541,-0.5393,-0.5388,-0.5376,-0.5369,-0.5366,-0.5347,-0.5337,-0.532,-0.5306,-0.5297,-0.5295,-0.5289,-0.53,-0.5298,-0.5304,-0.5304,-0.5323,-0.5325,-0.5297,-0.5297,-0.5298,0,-0.547,-0.5467,-0.5447,-0.5442,-0.5433,-0.5425,-0.5418,-0.5401,-0.5394,-0.5378,-0.5376,-0.5365,-0.5355,-0.5341,-0.5326,-0.5314,-0.5309,-0.5316,-0.5307,-0.5313,-0.531,-0.5311,-0.5311,-0.5319,-0.5319,-0.5319,-0.5319,0,-0.5488,-0.5481,-0.5472,-0.546,-0.5453,-0.5442,-0.5431,-0.5428,-0.5408,-0.5402,-0.5392,-0.5384,-0.537,-0.536,-0.5346,-0.5337,-0.5325,-0.5322,-0.5323,-0.5329,-0.5336,-0.5333,-0.5307,-0.5322,-0.5322,-0.5322,-0.5322,-0.5321,-0.5504,-0.5501,-0.5487,-0.5478,-0.5468,-0.5458,-0.5454,-0.5441,-0.5433,-0.542,-0.541,-0.5401,-0.5387,-0.5368,-0.5359,-0.5352,-0.5347,-0.5348,-0.5348,-0.5349,-0.5351,-0.5336,-0.535,-0.535,-0.535,-0.5349,-0.5349,0,-0.5523,-0.5513,-0.5505,-0.549,-0.5483,-0.5473,-0.546,-0.5455,-0.5448,-0.5436,-0.5427,-0.5416,-0.5406,-0.539,-0.5379,-0.5377,-0.5371,-0.5375,-0.5375,-0.5373,-0.5356,-0.5357,-0.5379,-0.5379,-0.5379,-0.5379,-0.5379,-0.5379,-0.5532,-0.5526,-0.5517,-0.5507,-0.5497,-0.5489,-0.5483,-0.5474,-0.5465,-0.5453,-0.5445,-0.5435,-0.5422,-0.541,-0.5401,-0.5396,-0.5393,-0.5399,-0.5393,-0.5377,-0.5374,-0.5372,-0.5373,-0.5398,-0.5398,-0.5411,-0.5411,-0.5411]}]]